STARLINK-34077 (64009 NORAD) Tracking and Keplerian Element Data

This shows tracking and keplerian element data for the satellite.

Feedback or suggestion? Click here.




ElementValue
Catalog64009
NameSTARLINK-34077
Epoch Orbit3481
Epoch Day353.62807578
Epoch Year2025
RAAN89.864
Inclination42.9997
Eccentricity0.0002081
Argument of Perigee281.9346
Mean Anonmoly78.1272
Mean Motion15.27586173
Decay Rate0.00019689
L11 64009U 25101R 25353.62807578 .00019689 00000+0 72296-3 0 9990
L22 64009 42.9997 89.8640 0002081 281.9346 78.1272 15.27586173 34818



Live tracking and technical data element details for STARLINK-34077 (NORAD 64009). STARLINK-34077 can be tracked NOW for your location showing map with azimuth and elevation plus other details from your city location.







IsCatalogInMostPopularTable: catalog: 64009, numindb: 7
Update: records affected: 1



GetName: 64009 STARLINK-34077

Hit Count: updated at: Tue, 21 Apr 2026 20:44:38 GMT